DW1980 Weather Reports


Display with metric or nautical units.
time (UTC)temp
F
wind
direction
speed
MPH
gust
MPH
rain 1hr
in
rain 24hr
in
rain mn
in
humidity
%
barometer
mb
20260508071346 45 360 0.0 2.0 0.04 0.16 0.04 89 1012.1
20260508070837 46 360 1.0 2.0 0.04 0.16 0.04 89 1012.2
20260508070347 46 316 0.0 3.0 0.03 0.15 0.03 89 1012.3
20260508070108 45 316 0.0 3.0 0.03 0.15 0.03 88 1012.4
20260508070053 45 316 0.0 6.0 0.03 0.15 0.03 88 1011.6
20260508065855 46 316 0.0 6.0 0.03 0.23 0.03 88 1012.4
20260508065344 46 279 1.0 6.0 0.03 0.23 0.03 87 1012.4
20260508064854 46 340 1.0 5.0 0.03 0.23 0.03 86 1012.4
20260508064619 46 317 2.0 5.0 0.03 0.23 0.03 86 1012.4
20260508064543 46 347 2.0 8.0 0.03 0.23 0.03 85 1011.7
20260508064343 46 304 2.0 8.0 0.03 0.23 0.03 85 1012.5
20260508063914 47 302 2.0 8.0 0.03 0.23 0.03 84 1012.5
20260508063403 47 306 2.0 5.0 0.03 0.23 0.03 83 1012.5
20260508063122 47 288 1.0 8.0 0.03 0.23 0.03 82 1012.5
20260508063037 47 288 2.0 16.0 0.03 0.23 0.03 81 1011.7
20260508062848 48 279 2.0 16.0 0.02 0.22 0.02 81 1012.5
20260508062338 48 279 4.0 16.0 0.02 0.22 0.02 77 1012.5
20260508061847 49 314 3.0 7.0 0.00 0.20 0.00 72 1012.3
20260508061608 48 293 2.0 8.0 0.00 0.20 0.00 70 1012.2
20260508061545 48 284 1.0 8.0 0.00 0.20 0.00 69 1011.3
20260508061357 48 309 3.0 8.0 0.00 0.20 0.00 69 1012.0
20260508060843 47 312 3.0 8.0 0.00 0.20 0.00 69 1011.8
20260508060355 46 36 5.0 8.0 0.00 0.20 0.00 72 1011.6
20260508060119 45 290 3.0 6.0 0.00 0.20 0.00 75 1011.7
20260508060043 45 293 3.0 7.0 0.00 0.20 0.00 76 1010.8
20260508055842 45 274 3.0 5.0 0.00 0.22 0.00 79 1011.3
20260508055353 45 288 2.0 3.0 0.00 0.22 0.00 87 1010.5
20260508054904 45 325 2.0 4.0 0.00 0.22 0.00 89 1010.1
20260508054612 44 344 1.0 4.0 0.00 0.22 0.00 90 1010.1
20260508054551 44 31 0.0 4.0 0.00 0.22 0.00 89 1009.5
20260508054354 44 5 2.0 4.0 0.00 0.22 0.00 90 1010.1
20260508053845 44 331 0.0 1.0 0.00 0.22 0.00 90 1010.1
20260508053355 44 331 0.0 1.0 0.00 0.22 0.00 89 1010.1
20260508053122 43 331 0.0 1.0 0.00 0.22 0.00 90 1010.2
20260508053044 43 0 0.0 1.0 0.00 0.22 0.00 89 1009.5
20260508052841 44 331 0.0 0.0 0.00 0.22 0.00 90 1010.2
20260508052351 44 331 0.0 0.0 0.00 0.22 0.00 90 1010.1
20260508051900 44 331 0.0 0.0 0.00 0.22 0.00 90 1010.1
20260508051607 43 331 0.0 0.0 0.00 0.22 0.00 90 1010.1
20260508051542 43 0 0.0 0.0 0.00 0.22 0.00 90 1009.4
20260508051410 43 331 0.0 0.0 0.00 0.22 0.00 90 1010.2
20260508050839 43 331 0.0 0.0 0.00 0.22 0.00 90 1010.2
20260508050350 43 331 0.0 0.0 0.00 0.22 0.00 89 1010.1
20260508050115 42 331 0.0 0.0 0.00 0.22 0.00 89 1010.1
20260508050110 42 0 0.0 0.0 0.00 0.22 0.00 89 1009.5
20260508045837 43 331 0.0 0.0 0.00 0.22 0.00 89 1010.2
20260508045346 43 331 0.0 0.0 0.00 0.22 0.00 89 1010.1
20260508044837 43 331 0.0 0.0 0.00 0.22 0.00 89 1010.0
20260508044605 42 331 0.0 0.0 0.00 0.22 0.00 88 1009.9
20260508044540 42 0 0.0 0.0 0.00 0.22 0.00 88 1009.2
20260508044347 43 331 0.0 0.0 0.00 0.22 0.00 88 1009.9
20260508043857 43 331 0.0 0.0 0.00 0.22 0.00 88 1009.9
20260508043349 43 331 0.0 0.0 0.00 0.22 0.00 88 1009.8
20260508043112 42 331 0.0 0.0 0.00 0.22 0.00 88 1009.8
20260508043041 42 0 0.0 0.0 0.00 0.22 0.00 87 1009.0
20260508042855 43 331 0.0 0.0 0.00 0.22 0.00 88 1009.9
20260508042344 43 331 0.0 0.0 0.00 0.22 0.00 87 1009.9
20260508041854 43 331 0.0 0.0 0.00 0.22 0.00 87 1009.9
20260508041622 43 331 0.0 0.0 0.00 0.22 0.00 87 1010.0
20260508041540 43 0 0.0 1.0 0.00 0.22 0.00 87 1009.2
20260508041345 43 331 0.0 1.0 0.00 0.22 0.00 87 1010.0
20260508040854 43 331 0.0 1.0 0.00 0.22 0.00 87 1010.0
20260508040345 43 331 0.0 2.0 0.00 0.22 0.00 86 1010.0
20260508040120 43 331 0.0 2.0 0.00 0.22 0.00 86 1010.0
20260508040045 43 0 0.0 2.0 0.00 0.22 0.00 85 1009.3
20260508035836 44 344 0.0 1.0 0.00 0.22 0.22 86 1010.1
20260508035347 44 344 0.0 0.0 0.00 0.22 0.22 85 1010.0
20260508034838 44 344 0.0 0.0 0.00 0.22 0.22 85 1010.0
20260508034604 43 344 0.0 0.0 0.00 0.22 0.22 85 1010.0
20260508034544 43 0 0.0 0.0 0.00 0.22 0.22 85 1009.3
20260508034410 44 344 0.0 0.0 0.00 0.22 0.22 85 1010.1
20260508033857 44 344 0.0 0.0 0.00 0.22 0.22 85 1010.1
20260508033406 44 344 0.0 1.0 0.00 0.22 0.22 84 1010.2
20260508033107 44 344 0.0 1.0 0.00 0.22 0.22 84 1010.1
20260508032851 45 344 0.0 0.0 0.00 0.22 0.22 84 1010.1
20260508032339 45 344 0.0 0.0 0.00 0.22 0.22 84 1010.1
20260508031850 45 344 0.0 1.0 0.00 0.22 0.22 84 1010.0
20260508031613 44 344 0.0 1.0 0.00 0.22 0.22 84 1009.9
20260508031539 44 0 0.0 1.0 0.00 0.22 0.22 83 1009.3
20260508031340 45 344 0.0 1.0 0.00 0.22 0.22 83 1010.0
20260508030850 45 344 0.0 1.0 0.00 0.22 0.22 83 1009.9
20260508030359 45 344 0.0 1.0 0.00 0.22 0.22 83 1009.9
20260508030121 44 344 0.0 1.0 0.00 0.22 0.22 83 1009.9
20260508030038 44 344 0.0 1.0 0.00 0.22 0.22 82 1009.2
20260508025846 45 344 0.0 1.0 0.00 0.22 0.22 83 1009.9
20260508025415 45 344 0.0 1.0 0.00 0.22 0.22 83 1010.0
20260508024845 45 344 0.0 2.0 0.00 0.22 0.22 83 1010.0
20260508024608 45 344 0.0 2.0 0.00 0.22 0.22 82 1010.0
20260508024554 45 0 0.0 2.0 0.00 0.22 0.22 82 1009.3
20260508024353 46 344 1.0 2.0 0.00 0.22 0.22 82 1010.0
20260508023845 46 344 0.0 1.0 0.00 0.22 0.22 81 1010.0
20260508023357 46 344 0.0 1.0 0.00 0.22 0.22 81 1010.0
20260508023102 46 344 0.0 0.0 0.00 0.22 0.22 80 1009.9
20260508023042 46 0 0.0 0.0 0.00 0.22 0.22 80 1009.3
20260508022844 46 344 0.0 0.0 0.00 0.22 0.22 80 1010.0
20260508022335 46 344 0.0 1.0 0.00 0.22 0.22 80 1010.0
20260508021845 47 344 0.0 1.0 0.00 0.22 0.22 79 1009.9
20260508021615 46 344 0.0 0.0 0.00 0.22 0.22 79 1009.8
20260508021540 46 0 0.0 0.0 0.00 0.22 0.22 78 1009.2
20260508021337 47 344 0.0 0.0 0.00 0.22 0.22 78 1009.8
20260508020909 47 344 0.0 0.0 0.00 0.22 0.22 78 1009.8
20260508020341 47 344 0.0 0.0 0.00 0.22 0.22 77 1009.8
20260508020055 47 0 0.0 0.0 0.00 0.22 0.22 76 1009.1
20260508015847 48 344 0.0 0.0 0.00 0.23 0.22 76 1009.8
20260508015338 48 344 0.0 0.0 0.00 0.23 0.22 75 1009.8
20260508014848 48 344 0.0 0.0 0.00 0.23 0.22 74 1009.8
20260508014617 48 344 0.0 0.0 0.00 0.23 0.22 74 1009.7
20260508014538 48 0 0.0 0.0 0.00 0.23 0.22 73 1009.1
20260508014340 49 344 0.0 0.0 0.00 0.23 0.22 74 1009.8
20260508013850 49 344 0.0 0.0 0.00 0.23 0.22 73 1009.8
20260508013341 49 344 0.0 2.0 0.00 0.23 0.22 72 1009.8
20260508013107 49 344 0.0 2.0 0.00 0.23 0.22 72 1009.7
20260508013045 49 0 0.0 2.0 0.00 0.23 0.22 71 1009.1
20260508012848 50 344 0.0 2.0 0.00 0.23 0.22 72 1009.8
20260508011851 50 298 0.0 1.0 0.00 0.23 0.22 70 1009.7
20260508011620 50 298 0.0 1.0 0.00 0.23 0.22 69 1009.5
20260508011545 50 0 0.0 1.0 0.00 0.23 0.22 69 1008.9
20260508011340 51 298 0.0 1.0 0.00 0.23 0.22 69 1009.6
20260508010835 51 298 0.0 1.0 0.00 0.23 0.22 68 1009.6
20260508010403 52 298 0.0 1.0 0.00 0.23 0.22 68 1009.6
20260508010106 52 298 0.0 1.0 0.00 0.23 0.22 67 1009.5
20260508010039 52 0 0.0 1.0 0.00 0.23 0.22 66 1008.8
20260508005850 52 298 0.0 1.0 0.00 0.23 0.22 67 1009.4
20260508005342 53 298 0.0 1.0 0.00 0.23 0.22 66 1009.5
20260508004852 53 298 0.0 1.0 0.00 0.23 0.22 64 1009.4
20260508004616 53 298 0.0 1.0 0.00 0.23 0.22 64 1009.3
20260508004538 53 0 0.0 1.0 0.00 0.23 0.22 63 1008.7
20260508004342 53 298 0.0 1.0 0.00 0.23 0.22 63 1009.3
20260508003849 54 298 1.0 1.0 0.00 0.23 0.22 62 1009.2
20260508003359 54 298 0.0 1.0 0.00 0.23 0.22 61 1009.1
20260508003118 54 298 0.0 1.0 0.00 0.23 0.22 60 1009.0
20260508003037 54 0 0.0 1.0 0.00 0.23 0.22 60 1008.3
20260508002848 55 298 0.0 1.0 0.00 0.23 0.22 60 1009.0
20260508002338 55 298 0.0 2.0 0.00 0.23 0.22 58 1009.0
20260508001908 56 298 0.0 2.0 0.00 0.23 0.22 57 1008.9
20260508001604 55 298 0.0 2.0 0.00 0.23 0.22 56 1008.8
20260508001551 55 298 0.0 1.0 0.00 0.23 0.22 55 1008.1
20260508001351 56 298 0.0 1.0 0.00 0.23 0.22 56 1008.7
20260508000852 57 298 0.0 1.0 0.00 0.23 0.22 56 1008.7
20260508000105 57 298 0.0 2.0 0.00 0.23 0.22 50 1008.6
20260508000041 57 0 0.0 2.0 0.00 0.23 0.22 50 1007.9
20260507235850 58 298 1.0 2.0 0.00 0.23 0.22 50 1008.7
20260507235400 58 298 0.0 2.0 0.00 0.23 0.22 55 1008.7
20260507234850 59 298 1.0 2.0 0.00 0.23 0.22 46 1008.6
20260507234538 58 0 0.0 5.0 0.00 0.23 0.22 45 1007.9
20260507234502 58 298 0.0 5.0 0.00 0.23 0.22 46 1008.5
20260507234400 59 298 0.0 5.0 0.00 0.23 0.22 45 1008.5
20260507233850 59 309 3.0 5.0 0.00 0.23 0.22 47 1008.5
20260507233341 59 54 2.0 7.0 0.00 0.23 0.22 44 1008.4
20260507233107 59 311 1.0 7.0 0.00 0.23 0.22 44 1008.3
20260507233038 59 336 1.0 7.0 0.00 0.23 0.22 44 1007.6
20260507232849 59 344 3.0 7.0 0.00 0.23 0.22 44 1008.4
20260507232341 60 294 1.0 4.0 0.00 0.23 0.22 43 1008.3
20260507231851 60 309 1.0 6.0 0.00 0.23 0.22 44 1008.3
20260507231619 59 319 2.0 6.0 0.00 0.23 0.22 43 1008.2
20260507231537 59 294 2.0 7.0 0.00 0.23 0.22 42 1007.6
20260507231341 60 271 2.0 4.0 0.00 0.23 0.22 45 1008.3
20260507230852 60 345 2.0 4.0 0.00 0.23 0.22 44 1008.4
20260507230344 60 304 1.0 8.0 0.00 0.23 0.22 42 1008.3
20260507230107 60 276 1.0 8.0 0.00 0.23 0.22 42 1008.2
20260507230039 60 330 2.0 8.0 0.00 0.23 0.22 43 1007.6
20260507225850 61 307 3.0 8.0 0.00 0.23 0.22 41 1008.2
20260507225340 61 347 2.0 9.0 0.00 0.23 0.22 42 1008.2
20260507224911 61 291 4.0 10.0 0.00 0.23 0.22 41 1008.2
20260507224621 60 26 2.0 10.0 0.00 0.23 0.22 40 1008.1
20260507224540 60 295 3.0 12.0 0.00 0.23 0.22 40 1007.6
20260507224341 61 291 4.0 12.0 0.00 0.23 0.22 41 1008.1
20260507223851 61 18 4.0 16.0 0.00 0.23 0.22 44 1008.2
20260507223342 61 280 7.0 16.0 0.00 0.23 0.22 40 1008.1
20260507223108 61 271 4.0 9.0 0.00 0.23 0.22 41 1008.1
20260507223048 61 286 2.0 9.0 0.00 0.23 0.22 40 1007.6
20260507222849 61 286 2.0 8.0 0.00 0.23 0.22 43 1008.1
20260507222340 61 292 2.0 9.0 0.00 0.23 0.22 44 1008.1
20260507221849 62 307 3.0 9.0 0.00 0.23 0.22 42 1008.1
20260507221618 61 347 3.0 9.0 0.00 0.23 0.22 42 1008.1
20260507221544 61 351 3.0 10.0 0.00 0.23 0.22 41 1007.6
20260507221340 62 59 2.0 10.0 0.00 0.23 0.22 42 1008.2
20260507220912 62 26 3.0 10.0 0.00 0.23 0.22 42 1008.2
20260507220342 62 52 6.0 9.0 0.00 0.23 0.22 40 1008.2
20260507220108 62 296 4.0 9.0 0.00 0.23 0.22 40 1008.1
20260507220042 62 214 4.0 11.0 0.00 0.23 0.22 40 1007.6
20260507215912 62 273 4.0 11.0 0.00 0.23 0.22 41 1008.1
20260507215341 63 11 5.0 11.0 0.00 0.23 0.22 41 1008.2
20260507214851 63 360 2.0 10.0 0.00 0.23 0.22 42 1008.1
20260507214543 62 336 5.0 11.0 0.00 0.23 0.22 40 1007.5
20260507214501 62 288 5.0 11.0 0.00 0.23 0.22 41 1008.0
20260507214401 63 303 5.0 11.0 0.00 0.23 0.22 41 1008.0
20260507213850 63 271 6.0 11.0 0.00 0.23 0.22 42 1007.8
20260507213342 63 285 4.0 8.0 0.00 0.23 0.22 39 1007.9
20260507213107 62 32 3.0 10.0 0.00 0.23 0.22 39 1007.9
20260507213047 62 293 3.0 10.0 0.00 0.23 0.22 41 1007.4
20260507212911 63 296 3.0 10.0 0.00 0.23 0.22 43 1008.0
20260507212339 63 338 5.0 10.0 0.00 0.23 0.22 42 1008.0
20260507211835 62 351 5.0 11.0 0.00 0.23 0.22 41 1007.8
20260507211619 62 295 3.0 11.0 0.00 0.23 0.22 40 1007.8
20260507211548 62 329 5.0 12.0 0.00 0.23 0.22 40 1007.3
20260507211346 62 277 5.0 12.0 0.00 0.23 0.22 40 1007.8
20260507210837 63 316 4.0 12.0 0.00 0.23 0.22 41 1007.8
20260507210348 63 360 3.0 10.0 0.00 0.23 0.22 41 1007.9
20260507210111 62 355 2.0 10.0 0.00 0.23 0.22 42 1007.8
20260507210041 62 260 3.0 10.0 0.00 0.23 0.22 42 1007.3
20260507205835 63 292 5.0 10.0 0.00 0.27 0.22 41 1007.9
20260507205405 63 285 5.0 10.0 0.00 0.27 0.22 40 1007.9
20260507204915 63 42 4.0 11.0 0.00 0.27 0.22 44 1007.8
20260507204548 62 309 3.0 11.0 0.00 0.27 0.22 42 1007.1
20260507204505 62 284 4.0 11.0 0.00 0.27 0.22 43 1007.6
20260507204404 63 348 3.0 11.0 0.00 0.27 0.22 43 1007.7
20260507203854 63 5 5.0 11.0 0.00 0.27 0.22 41 1007.8
20260507203344 63 355 5.0 12.0 0.00 0.27 0.22 42 1007.8
20260507203104 62 273 5.0 12.0 0.00 0.27 0.22 40 1007.8
20260507203036 63 306 3.0 12.0 0.00 0.27 0.22 39 1007.2
20260507202852 63 277 3.0 12.0 0.00 0.27 0.22 41 1007.8
20260507202402 63 301 7.0 12.0 0.00 0.27 0.22 39 1007.6
20260507201850 63 279 4.0 8.0 0.00 0.27 0.22 42 1007.7
20260507201615 63 330 2.0 8.0 0.00 0.27 0.22 40 1007.6
20260507201546 63 271 2.0 9.0 0.00 0.27 0.22 42 1007.0
20260507201341 63 5 1.0 9.0 0.00 0.27 0.22 44 1007.7
20260507200849 63 313 4.0 10.0 0.00 0.27 0.22 42 1007.7
20260507200340 62 265 4.0 10.0 0.00 0.27 0.22 41 1007.8
20260507200042 62 77 2.0 11.0 0.00 0.27 0.22 41 1007.2
20260507200011 62 41 3.0 11.0 0.00 0.27 0.22 41 1007.7
20260507195908 62 342 3.0 11.0 0.00 0.34 0.22 43 1007.9
20260507195338 62 273 4.0 11.0 0.00 0.34 0.22 41 1008.0
20260507194908 63 285 4.0 11.0 0.00 0.34 0.22 43 1007.9
20260507194622 62 267 3.0 13.0 0.00 0.34 0.22 41 1007.9
20260507194607 62 307 4.0 13.0 0.00 0.34 0.22 42 1007.4
20260507194357 63 88 5.0 13.0 0.00 0.34 0.22 41 1008.0
20260507193848 63 42 5.0 12.0 0.00 0.34 0.22 41 1008.0
20260507193338 63 305 3.0 10.0 0.00 0.34 0.22 47 1008.0
20260507193121 62 268 2.0 13.0 0.00 0.34 0.22 41 1007.9
20260507193045 62 291 4.0 13.0 0.00 0.34 0.22 41 1007.5
20260507192846 63 271 5.0 13.0 0.00 0.34 0.22 42 1008.2
20260507192337 64 348 6.0 13.0 0.00 0.34 0.22 42 1008.2
20260507191848 63 293 3.0 10.0 0.00 0.34 0.22 43 1008.3
20260507191618 62 302 5.0 12.0 0.00 0.34 0.22 40 1008.1
20260507191544 62 34 4.0 12.0 0.00 0.34 0.22 43 1007.5
20260507191339 63 10 4.0 12.0 0.00 0.34 0.22 40 1008.2
20260507190850 64 311 5.0 14.0 0.00 0.34 0.22 42 1008.3
20260507190343 65 13 4.0 14.0 0.00 0.34 0.22 44 1008.3
20260507190108 64 295 6.0 14.0 0.00 0.34 0.22 46 1008.3
20260507190042 64 298 4.0 11.0 0.00 0.34 0.22 44 1007.8
20260507185849 64 320 4.0 11.0 0.00 0.34 0.22 41 1008.3
20260507185340 64 341 3.0 10.0 0.00 0.34 0.22 42 1008.5
20260507184849 64 299 4.0 12.0 0.00 0.34 0.22 40 1008.6
20260507184618 64 286 4.0 12.0 0.00 0.34 0.22 41 1008.6
20260507184540 64 20 4.0 12.0 0.00 0.34 0.22 42 1007.9
20260507184341 64 275 5.0 12.0 0.00 0.34 0.22 41 1008.6
20260507183852 64 5 5.0 11.0 0.00 0.34 0.22 43 1008.8
20260507183404 64 309 4.0 15.0 0.00 0.34 0.22 45 1008.8
20260507183108 64 348 2.0 15.0 0.00 0.34 0.22 46 1008.8
20260507183049 64 297 3.0 15.0 0.00 0.34 0.22 45 1008.1
20260507182849 64 294 4.0 15.0 0.00 0.34 0.22 46 1008.7
20260507182340 63 275 7.0 15.0 0.00 0.34 0.22 41 1008.9
20260507181850 63 337 4.0 13.0 0.00 0.34 0.22 44 1009.0
20260507181623 63 309 5.0 13.0 0.00 0.34 0.22 42 1008.9
20260507181538 63 292 5.0 13.0 0.00 0.34 0.22 41 1008.3
20260507181340 64 278 2.0 13.0 0.00 0.34 0.22 43 1009.0
20260507180851 64 298 5.0 11.0 0.00 0.34 0.22 42 1009.0
20260507180343 64 120 2.0 11.0 0.00 0.34 0.22 44 1008.8
20260507180107 63 252 4.0 11.0 0.00 0.34 0.22 43 1008.9
20260507180051 62 266 4.0 11.0 0.00 0.34 0.22 45 1008.4
20260507175851 63 312 4.0 11.0 0.00 0.37 0.22 43 1009.0
20260507175340 62 355 3.0 10.0 0.00 0.37 0.22 49 1009.0
20260507174835 62 263 2.0 9.0 0.00 0.37 0.22 45 1009.1
20260507174541 62 85 5.0 12.0 0.00 0.37 0.22 42 1008.6
20260507174503 63 26 4.0 12.0 0.00 0.37 0.22 43 1009.3
20260507174403 63 336 4.0 12.0 0.00 0.37 0.22 45 1009.4
20260507173836 62 22 5.0 12.0 0.00 0.37 0.22 46 1009.4
20260507173404 63 314 4.0 14.0 0.00 0.37 0.22 43 1009.5
20260507173137 62 290 4.0 14.0 0.00 0.37 0.22 49 1009.4
20260507173054 62 315 5.0 14.0 0.00 0.37 0.22 47 1008.7
20260507172849 63 292 5.0 14.0 0.00 0.37 0.22 51 1009.5
20260507172344 63 306 2.0 14.0 0.00 0.37 0.22 47 1009.5
20260507171908 62 294 6.0 11.0 0.00 0.37 0.22 45 1009.6
20260507171615 61 332 2.0 11.0 0.00 0.37 0.22 43 1009.5
20260507171538 61 280 3.0 11.0 0.00 0.37 0.22 43 1008.9
20260507171358 62 277 6.0 11.0 0.00 0.37 0.22 43 1009.7
20260507170908 62 325 4.0 14.0 0.00 0.37 0.22 41 1009.8
20260507170339 62 335 3.0 14.0 0.00 0.37 0.22 50 1009.9
20260507170117 62 24 8.0 14.0 0.00 0.37 0.22 42 1009.9
20260507170048 62 306 7.0 14.0 0.00 0.37 0.22 41 1009.3
20260507165847 63 301 6.0 12.0 0.00 0.38 0.22 43 1009.9
20260507165341 62 277 4.0 9.0 0.00 0.38 0.22 53 1010.0
20260507164906 62 313 2.0 11.0 0.00 0.38 0.22 49 1010.0
20260507164613 61 261 4.0 11.0 0.00 0.38 0.22 45 1009.9
20260507164543 61 271 5.0 11.0 0.00 0.38 0.22 47 1009.4
20260507164338 62 355 5.0 11.0 0.00 0.38 0.22 45 1010.1
20260507163847 61 295 4.0 9.0 0.00 0.38 0.22 46 1010.2
20260507163339 61 275 4.0 15.0 0.00 0.38 0.22 48 1010.2
20260507163041 60 268 6.0 15.0 0.00 0.38 0.22 46 1009.6
20260507163010 61 355 6.0 15.0 0.00 0.38 0.22 46 1010.2
20260507162906 62 277 6.0 13.0 0.00 0.38 0.22 52 1010.4
20260507162354 62 311 5.0 13.0 0.00 0.38 0.22 49 1010.4
20260507161845 60 360 4.0 14.0 0.00 0.38 0.22 52 1010.3
20260507161609 60 13 3.0 14.0 0.00 0.38 0.22 51 1010.2
20260507161549 60 24 1.0 14.0 0.00 0.38 0.22 54 1009.9
20260507161335 60 70 2.0 14.0 0.00 0.38 0.22 48 1010.3
20260507160845 60 355 5.0 10.0 0.00 0.38 0.22 47 1010.4
20260507160417 61 327 3.0 10.0 0.00 0.38 0.22 50 1010.5
20260507160117 60 308 2.0 13.0 0.00 0.38 0.22 56 1010.5
20260507160041 59 315 3.0 14.0 0.00 0.38 0.22 57 1010.0
20260507155842 59 355 4.0 14.0 0.00 0.38 0.22 47 1010.5
20260507155351 60 70 7.0 14.0 0.00 0.38 0.22 51 1010.6
20260507154842 61 185 4.0 8.0 0.00 0.38 0.22 57 1010.6
20260507154605 60 306 2.0 8.0 0.00 0.38 0.22 50 1010.7
20260507154542 60 352 2.0 9.0 0.00 0.38 0.22 52 1010.1
20260507154351 60 310 3.0 8.0 0.00 0.38 0.22 50 1010.7
20260507153842 59 60 2.0 10.0 0.00 0.38 0.22 54 1010.8
20260507153354 59 5 5.0 10.0 0.00 0.38 0.22 53 1010.9
20260507153039 59 300 4.0 11.0 0.00 0.38 0.22 49 1010.2
20260507153001 59 284 4.0 10.0 0.00 0.38 0.22 51 1010.8
20260507152900 59 226 4.0 11.0 0.00 0.38 0.22 53 1010.9
20260507152350 59 351 5.0 11.0 0.00 0.38 0.22 53 1011.0
20260507151840 59 303 5.0 11.0 0.00 0.38 0.22 49 1010.9
20260507151608 59 255 3.0 11.0 0.00 0.38 0.22 57 1010.9
20260507151544 59 279 3.0 11.0 0.00 0.38 0.22 56 1010.3
20260507151351 59 36 4.0 11.0 0.00 0.38 0.22 60 1011.0
20260507150841 59 295 3.0 9.0 0.00 0.38 0.22 57 1011.0
20260507150352 58 275 4.0 11.0 0.00 0.38 0.22 56 1011.0
20260507150117 58 300 3.0 11.0 0.00 0.38 0.22 53 1011.0
20260507150043 58 314 3.0 13.0 0.00 0.38 0.22 55 1010.4
20260507145859 58 5 4.0 13.0 0.00 0.38 0.22 52 1011.1
20260507145410 57 309 5.0 13.0 0.00 0.38 0.22 55 1011.1
20260507144838 58 273 5.0 14.0 0.00 0.38 0.22 57 1011.0
20260507144606 57 273 5.0 14.0 0.00 0.38 0.22 56 1011.0
20260507144543 57 308 6.0 14.0 0.00 0.38 0.22 53 1010.4
20260507144348 57 298 6.0 14.0 0.00 0.38 0.22 55 1011.0
20260507143838 57 344 6.0 14.0 0.00 0.38 0.22 55 1010.9
20260507143349 57 9 5.0 13.0 0.00 0.38 0.22 60 1010.9
20260507143132 56 318 4.0 13.0 0.00 0.38 0.22 61 1010.9
20260507143044 56 5 4.0 13.0 0.00 0.38 0.22 58 1010.4
20260507142915 57 5 5.0 13.0 0.00 0.38 0.22 60 1010.9
20260507142406 57 327 4.0 12.0 0.00 0.38 0.22 61 1010.9
20260507141855 57 286 4.0 8.0 0.00 0.38 0.22 64 1011.1
20260507141636 55 355 2.0 9.0 0.00 0.38 0.22 66 1010.9
20260507141539 55 294 3.0 11.0 0.00 0.38 0.22 66 1010.3
20260507141346 55 274 3.0 11.0 0.00 0.38 0.22 68 1011.0
20260507140854 55 335 5.0 11.0 0.00 0.38 0.22 69 1010.9
20260507140345 55 308 5.0 11.0 0.00 0.38 0.22 72 1011.0
20260507140109 54 324 2.0 7.0 0.00 0.38 0.22 75 1010.9
20260507140038 54 312 2.0 8.0 0.00 0.38 0.22 75 1010.5
20260507135852 54 304 3.0 8.0 0.00 0.38 0.22 74 1011.0
20260507135341 53 312 3.0 10.0 0.00 0.38 0.22 77 1011.0
20260507134913 53 38 5.0 10.0 0.00 0.38 0.22 78 1011.1
20260507134542 52 355 1.0 8.0 0.00 0.38 0.22 80 1010.6
20260507134507 52 14 1.0 8.0 0.00 0.38 0.22 80 1011.1
20260507134402 53 54 1.0 8.0 0.00 0.38 0.22 79 1011.2
20260507133852 53 322 4.0 8.0 0.00 0.38 0.22 79 1011.3
20260507133343 53 336 3.0 11.0 0.00 0.38 0.22 80 1011.2
20260507133108 52 296 4.0 11.0 0.00 0.38 0.22 80 1011.0
20260507133046 52 263 6.0 11.0 0.00 0.38 0.22 80 1010.5
20260507132850 52 355 4.0 11.0 0.00 0.38 0.22 82 1011.1
20260507132342 52 5 2.0 8.0 0.00 0.38 0.22 83 1011.1
20260507131851 52 307 4.0 12.0 0.00 0.38 0.22 83 1011.0
20260507131620 51 288 4.0 12.0 0.00 0.38 0.22 82 1010.8
20260507131547 51 317 4.0 12.0 0.00 0.38 0.22 82 1010.3
20260507131341 52 320 6.0 12.0 0.00 0.38 0.22 82 1011.0
20260507130850 51 360 6.0 12.0 0.00 0.38 0.22 84 1011.0
20260507130341 51 278 4.0 10.0 0.00 0.38 0.22 85 1011.0
20260507130106 50 13 6.0 10.0 0.00 0.38 0.22 85 1010.9
20260507130050 50 355 4.0 10.0 0.00 0.38 0.22 86 1010.2
20260507125910 51 313 4.0 9.0 0.00 0.38 0.22 87 1011.0
20260507125338 51 311 3.0 10.0 0.00 0.38 0.22 89 1011.0
20260507124849 50 28 3.0 10.0 0.00 0.38 0.22 89 1011.1
20260507124618 50 304 2.0 10.0 0.00 0.38 0.22 90 1011.0
20260507124540 50 337 2.0 10.0 0.00 0.38 0.22 89 1010.3
20260507124343 50 284 3.0 8.0 0.00 0.38 0.22 90 1011.1
20260507123835 50 284 2.0 8.0 0.00 0.38 0.22 93 1011.1
20260507123346 50 35 3.0 8.0 0.00 0.38 0.22 93 1011.0
20260507123106 50 319 2.0 8.0 0.00 0.38 0.22 93 1010.9
20260507123044 50 315 2.0 8.0 0.00 0.38 0.22 93 1010.2
20260507122852 50 5 3.0 8.0 0.00 0.38 0.22 93 1011.0
20260507122342 50 16 2.0 9.0 0.00 0.38 0.22 94 1011.0
20260507121852 50 314 1.0 9.0 0.00 0.38 0.22 94 1011.0
20260507121617 49 281 4.0 9.0 0.00 0.38 0.22 94 1010.9
20260507121541 49 302 2.0 8.0 0.00 0.38 0.22 93 1010.3
20260507121343 50 308 2.0 5.0 0.00 0.38 0.22 94 1011.0
20260507120912 50 344 2.0 4.0 0.00 0.38 0.22 94 1011.0
20260507120343 50 306 2.0 6.0 0.00 0.38 0.22 94 1011.0
20260507120106 49 288 2.0 6.0 0.00 0.38 0.22 95 1010.9
20260507120040 49 0 2.0 7.0 0.00 0.38 0.22 94 1010.3
20260507115910 50 306 3.0 6.0 0.00 0.38 0.22 95 1011.0
20260507115339 49 289 1.0 5.0 0.00 0.38 0.22 95 1010.9
20260507114849 49 301 2.0 5.0 0.00 0.38 0.22 95 1010.8
20260507114617 49 286 2.0 5.0 0.00 0.38 0.22 95 1010.7
20260507114540 49 302 1.0 5.0 0.00 0.38 0.22 94 1010.1
20260507114338 49 300 1.0 5.0 0.00 0.38 0.22 95 1010.8
20260507113849 49 314 1.0 2.0 0.00 0.38 0.22 95 1010.7
20260507113341 49 9 1.0 3.0 0.00 0.38 0.22 95 1010.6
20260507113107 49 311 0.0 3.0 0.00 0.38 0.22 95 1010.4
20260507113042 49 313 1.0 3.0 0.00 0.38 0.22 95 1009.8
20260507112846 49 297 2.0 3.0 0.00 0.38 0.22 95 1010.6
20260507112335 49 296 0.0 2.0 0.00 0.38 0.22 95 1010.5
20260507111846 49 302 0.0 2.0 0.00 0.38 0.22 95 1010.6
20260507111614 48 301 0.0 3.0 0.00 0.38 0.22 95 1010.5
20260507111537 49 301 0.0 4.0 0.00 0.38 0.22 95 1009.9
20260507111336 49 317 0.0 4.0 0.00 0.38 0.22 95 1010.6
20260507110846 49 293 1.0 4.0 0.00 0.38 0.22 95 1010.6
20260507110357 49 297 1.0 2.0 0.00 0.38 0.22 95 1010.4
20260507110107 48 327 0.0 3.0 0.00 0.38 0.22 95 1010.2
20260507110055 48 0 0.0 3.0 0.00 0.38 0.22 95 1009.8
20260507105845 49 298 1.0 3.0 0.00 0.38 0.22 95 1010.4
20260507105335 49 287 1.0 3.0 0.00 0.38 0.22 95 1010.4
20260507104845 49 290 0.0 0.0 0.00 0.38 0.22 95 1010.3
20260507104612 48 309 0.0 4.0 0.00 0.38 0.22 95 1010.1
20260507104549 48 0 0.0 4.0 0.00 0.38 0.22 95 1009.7
20260507104354 49 309 0.0 4.0 0.00 0.38 0.22 95 1010.3
20260507103844 49 289 1.0 4.0 0.00 0.38 0.22 95 1010.1
20260507103356 49 292 0.0 2.0 0.00 0.38 0.22 95 1010.1
20260507103122 48 298 0.0 4.0 0.00 0.38 0.22 95 1009.9
20260507103106 48 0 0.0 4.0 0.00 0.38 0.22 95 1009.4
20260507102844 49 306 0.0 4.0 0.00 0.38 0.22 95 1010.0
20260507102415 49 316 1.0 3.0 0.00 0.38 0.22 95 1009.8
20260507101844 49 298 1.0 7.0 0.00 0.38 0.22 95 1009.8
20260507101613 48 319 0.0 7.0 0.00 0.38 0.22 95 1009.6
20260507101540 48 319 1.0 7.0 0.00 0.38 0.22 95 1009.1
20260507101335 49 334 2.0 7.0 0.00 0.38 0.22 95 1009.9
20260507100845 49 288 2.0 5.0 0.00 0.38 0.22 95 1009.6
20260507100340 49 326 2.0 4.0 0.00 0.38 0.22 95 1009.6
20260507100120 49 296 0.0 3.0 0.00 0.38 0.22 96 1009.6
20260507100049 49 0 1.0 5.0 0.00 0.38 0.22 95 1009.1
20260507095846 49 309 1.0 5.0 0.00 0.38 0.22 96 1009.8
20260507095337 49 307 1.0 5.0 0.00 0.38 0.22 96 1009.9
20260507094848 49 299 2.0 5.0 0.00 0.38 0.22 96 1009.8
20260507094611 49 302 2.0 5.0 0.00 0.38 0.22 96 1009.5
20260507094537 49 294 1.0 8.0 0.00 0.38 0.22 95 1008.8
20260507094357 49 321 1.0 8.0 0.00 0.38 0.22 96 1009.6
20260507093846 49 280 4.0 8.0 0.01 0.38 0.22 96 1009.7
20260507093353 49 250 3.0 7.0 0.01 0.38 0.22 96 1009.5
20260507093113 49 297 2.0 5.0 0.01 0.38 0.22 96 1009.3
20260507093042 49 329 2.0 6.0 0.01 0.38 0.22 95 1008.8
20260507092838 50 315 3.0 6.0 0.02 0.38 0.22 96 1009.5
20260507092349 50 292 2.0 5.0 0.02 0.38 0.22 96 1009.6
20260507091838 50 42 3.0 5.0 0.02 0.38 0.22 96 1009.6
20260507091607 49 303 1.0 5.0 0.03 0.38 0.22 96 1009.4
20260507091545 49 311 1.0 5.0 0.03 0.38 0.22 96 1008.8
20260507091409 50 300 2.0 5.0 0.03 0.38 0.22 96 1009.5
20260507090839 50 286 3.0 5.0 0.04 0.38 0.22 96 1009.5
20260507090350 50 300 3.0 5.0 0.05 0.38 0.22 96 1009.4
20260507090116 50 42 3.0 5.0 0.06 0.38 0.22 96 1009.1
20260507090046 50 310 2.0 6.0 0.06 0.38 0.22 96 1008.6
20260507085840 50 300 1.0 5.0 0.06 0.38 0.22 96 1009.4
20260507085350 50 315 1.0 4.0 0.07 0.38 0.22 96 1009.6
20260507084840 50 293 1.0 7.0 0.07 0.38 0.22 96 1009.4
20260507084608 50 326 1.0 7.0 0.08 0.38 0.22 96 1009.3
20260507084545 50 275 1.0 7.0 0.08 0.38 0.22 96 1008.7
20260507084351 50 10 2.0 7.0 0.08 0.38 0.22 96 1009.5
20260507083842 50 299 1.0 4.0 0.08 0.37 0.21 96 1009.5
20260507083352 51 313 3.0 4.0 0.08 0.37 0.21 96 1009.4
20260507083115 50 286 1.0 3.0 0.09 0.37 0.21 96 1009.1
20260507083037 50 293 0.0 3.0 0.09 0.37 0.21 96 1008.7
20260507082837 51 298 1.0 3.0 0.08 0.36 0.20 96 1009.4
20260507082348 51 285 1.0 5.0 0.08 0.36 0.20 96 1009.9
20260507081839 51 290 2.0 5.0 0.08 0.36 0.20 96 1009.6
20260507081606 50 299 0.0 3.0 0.07 0.35 0.19 96 1009.2
20260507081538 50 0 0.0 4.0 0.07 0.35 0.19 96 1008.7
20260507081348 51 5 1.0 4.0 0.08 0.35 0.19 96 1009.4
20260507080859 51 299 1.0 4.0 0.07 0.34 0.18 96 1009.7
20260507080351 51 334 0.0 4.0 0.07 0.33 0.17 96 1009.6
20260507080115 51 31 0.0 4.0 0.06 0.32 0.16 96 1009.6
20260507080046 50 355 0.0 6.0 0.06 0.32 0.16 96 1008.9
20260507075838 51 355 1.0 6.0 0.07 0.32 0.16 96 1009.8
20260507075348 51 333 2.0 6.0 0.07 0.31 0.15 96 1009.8
20260507074840 51 24 1.0 6.0 0.08 0.31 0.15 96 1009.6
20260507074608 51 313 1.0 6.0 0.07 0.30 0.14 96 1009.5
20260507074541 51 328 1.0 6.0 0.07 0.30 0.14 95 1008.9
20260507074350 51 306 2.0 6.0 0.08 0.30 0.14 96 1009.6
20260507073901 51 295 1.0 3.0 0.08 0.29 0.13 96 1009.8
20260507073351 51 302 0.0 8.0 0.08 0.29 0.13 96 1009.8
20260507073137 51 301 0.0 8.0 0.07 0.28 0.12 96 1009.6
20260507073045 51 0 3.0 8.0 0.07 0.28 0.12 95 1008.9
20260507072858 51 290 3.0 7.0 0.07 0.28 0.12 95 1009.7
20260507072347 51 309 1.0 4.0 0.08 0.28 0.12 95 1009.6
20260507071837 51 44 1.0 4.0 0.08 0.28 0.12 95 1009.6
20260507071605 51 298 0.0 4.0 0.08 0.28 0.12 95 1009.6
20260507071545 51 0 0.0 5.0 0.08 0.28 0.12 95 1008.9